ラーセン彗星

200P/Larsen (2008)

English version
Home page
Updated on March 8, 2009

---------------------------------------------------------------------

・ プロフィール

符号 200P/2008 L1
検出日 2008年6月9日
検出光度 20.2等
検出者 J. V. Scotti (Spacewatch, Kitt Peak)

・ 写真集

・ 軌道要素

Epoch 2008 Sept. 11.0 TT = JDT 2454720.5
T 2008 Aug. 25.1744 TT                                  MPC
q   3.271999             (2000.0)            P               Q
n   0.0906677      Peri.  133.7286      +0.9757323      -0.1359879
a   4.907208       Node   234.8163      +0.0844817      +0.9568877
e   0.333226       Incl.   12.1214      +0.2020130      +0.2566577
P  10.9
From 266 observations 1997-2008, mean residual 0".5.

・ 星図

・ 光度変化

        m1 = -25.8 + 5 logΔ + 80 log r(t - 100)

---------------------------------------------------------------------

軌道要素はM.P.E.C. 2008-L45に掲載されたものです。
星図は StellaNavigator Ver.2.0 for Windows (アストロアーツ 編著 / アスキー出版局刊) で作成したものです。
光度グラフはComet for Windowsで作成したものです。

---------------------------------------------------------------------

Copyright(C) Seiichi Yoshida (comet@aerith.net). All rights reserved.